Terminal Aerodrome Forecast
Issued by NWS Paducah, KY

Home | Current Version | Previous Version | Text Only | Print | Product List | Glossary On
Versions: 1 2 3 4 5 6 7 8 9 10 11 12 13 14 15 16 17 18 19 20
000
FTUS43 KPAH 271720
TAFEVV
TAF
KEVV 271720Z 2718/2818 12005KT 6SM -TSRA BR BKN050CB
     FM271900 14006KT P6SM SCT025 BKN120
     FM272200 17012G22KT P6SM VCTS BKN035CB
      TEMPO 2723/2803 4SM TSRA BR BKN025CB
     FM280500 23005KT P6SM SCT250
     FM281400 25011KT P6SM SCT250=

USA.gov is the U.S. government's official web portal to all federal, state and local government web resources and services.